Cork, Ireland

6:08 AM GMT on February 27, 2017 (GMT +0000)
Cork

Weather History for 03955 - November, 2012

Change the Weather History Date:

Saturday, November 3, 2012

  Actual Average Record
Temperature  
Mean Temperature 38 °F -  
Max Temperature 45 °F 50 °F - ()
Min Temperature 32 °F 40 °F - ()
Degree Days  
Heating Degree Days 26    
Moisture  
Dew Point 35 °F    
Average Humidity 85    
Maximum Humidity 100    
Minimum Humidity 70    
Precipitation  
Precipitation 0.08 in 0.15 in - ()
Sea Level Pressure  
Sea Level Pressure 29.30 in    
Wind  
Wind Speed 10 mph ()    
Max Wind Speed 18 mph    
Max Gust Speed 31 mph    
Visibility 6.6 miles    
Events Rain    
T = Trace of Precipitation, MM = Missing Value Source: Averaged Metar Reports

Daily Weather History Graph

Daily Weather History Graph

Search for Another Location

Airport or City:

Trip Planner

Search our weather history database for the weather conditions in past years. The results will help you decide how hot, cold, wet, or windy it might be!

Date:

Astronomy

Nov. 03, 2012 Rise Set
Actual Time 7:32 AM GMT 5:01 PM GMT
Civil Twilight 6:56 AM GMT 5:37 PM GMT
Nautical Twilight 6:16 AM GMT 6:17 PM GMT
Astronomical Twilight 5:37 AM GMT 6:56 PM GMT
Moon 8:17 PM GMT (11/3) 11:41 AM GMT (11/3)
Length of Visible Light 10h 40m
Length of Day
9h 29m
Waning Gibbous, 82% of the Moon is Illuminated
Nov 3
Waning Gibbous
Nov 7
Last Quarter
Nov 13
New
Nov 20
First Quarter
Nov 28
Full

Hourly Weather History & Observations

Time (GMT) Temp. Windchill Dew Point Humidity Pressure Visibility Wind Dir Wind Speed Gust Speed Precip Events Conditions
12:00 AM 37 °F - 35 °F 90% 29.33 in 25 mi WSW 11.2 mph - -   Partly Cloudy
12:00 AM 37.4 °F 30.3 °F 35.6 °F 93% 29.30 in 6.2 mi WSW 10.4 mph - N/A   Partly Cloudy
12:30 AM 39.2 °F 31.6 °F 35.6 °F 87% 29.30 in 6.2 mi West 12.7 mph - N/A   Partly Cloudy
1:00 AM 39.2 °F 34.2 °F 35.6 °F 87% 29.30 in 6.2 mi West 6.9 mph - N/A   Partly Cloudy
1:30 AM 37.4 °F 32.8 °F 33.8 °F 87% 29.30 in 6.2 mi West 5.8 mph - N/A   Partly Cloudy
2:00 AM 35.6 °F 28.6 °F 33.8 °F 93% 29.30 in 6.2 mi WSW 9.2 mph - N/A   Partly Cloudy
2:30 AM 35.6 °F 29.2 °F 33.8 °F 93% 29.30 in 6.2 mi West 8.1 mph - N/A   Partly Cloudy
3:00 AM 35.6 °F 30.7 °F 33.8 °F 93% 29.30 in 6.2 mi WSW 5.8 mph - N/A   Partly Cloudy
3:30 AM 35.6 °F 29.9 °F 33.8 °F 93% 29.30 in 6.2 mi West 6.9 mph - N/A   Partly Cloudy
4:00 AM 33.8 °F 25.8 °F 32.0 °F 93% 29.30 in 6.2 mi WSW 10.4 mph - N/A   Partly Cloudy
4:30 AM 33.8 °F 27.0 °F 32.0 °F 93% 29.30 in 6.2 mi SW 8.1 mph - N/A   Partly Cloudy
5:00 AM 33.8 °F 27.0 °F 32.0 °F 93% 29.30 in 6.2 mi SW 8.1 mph - N/A   Partly Cloudy
5:30 AM 35.6 °F 28.6 °F 33.8 °F 93% 29.30 in 6.2 mi WSW 9.2 mph - N/A   Partly Cloudy
6:00 AM 33 °F - 32 °F 95% 29.34 in 19 mi SW 8.9 mph - -   Partly Cloudy
6:00 AM 33.8 °F 26.4 °F 32.0 °F 93% 29.30 in 6.2 mi SW 9.2 mph - N/A   Partly Cloudy
6:30 AM 32.0 °F 25.6 °F 32.0 °F 100% 29.30 in 6.2 mi SW 6.9 mph - N/A   Partly Cloudy
7:00 AM 33.8 °F 26.4 °F 32.0 °F 93% 29.33 in 6.2 mi SW 9.2 mph - N/A   Partly Cloudy
7:30 AM 37.4 °F 30.3 °F 32.0 °F 81% 29.33 in 6.2 mi West 10.4 mph - N/A   Scattered Clouds
8:00 AM 35.6 °F 27.5 °F 32.0 °F 87% 29.33 in 6.2 mi SW 11.5 mph - N/A   Mostly Cloudy
8:30 AM 37.4 °F 28.9 °F 33.8 °F 87% 29.33 in 6.2 mi West 13.8 mph - N/A   Mostly Cloudy
9:00 AM 39.2 °F 30.8 °F 35.6 °F 87% 29.33 in 6.2 mi West 15.0 mph - N/A   Scattered Clouds
9:30 AM 41.0 °F 35.8 °F 37.4 °F 87% 29.33 in 6.2 mi SW 8.1 mph - N/A   Partly Cloudy
10:00 AM 41.0 °F 35.2 °F 37.4 °F 87% 29.33 in 6.2 mi SW 9.2 mph - N/A   Partly Cloudy
10:30 AM 39.2 °F 29.8 °F 35.6 °F 87% 29.33 in 6.2 mi WSW 18.4 mph - N/A Rain Light Rain Showers
11:00 AM 41.0 °F 34.7 °F 35.6 °F 81% 29.33 in 6.2 mi West 10.4 mph - N/A   Scattered Clouds
11:30 AM 42.8 °F 36.2 °F 37.4 °F 81% 29.33 in 6.2 mi SW 12.7 mph - N/A   Scattered Clouds
12:00 PM 42 °F - 35 °F 70% 29.36 in 25 mi WSW 13.4 mph - - Rain Light Rain Showers
12:00 PM 41.0 °F 33.9 °F 35.6 °F 81% 29.33 in 6.2 mi WSW 12.7 mph - N/A Rain Light Rain Showers
12:30 PM 41.0 °F 33.5 °F 37.4 °F 87% 29.30 in 6.2 mi SSW 13.8 mph - N/A   Partly Cloudy
1:00 PM 42.8 °F 35.4 °F 37.4 °F 81% 29.30 in 6.2 mi SW 15.0 mph - N/A   Partly Cloudy
1:30 PM 44.6 °F 37.8 °F 37.4 °F 76% 29.30 in 6.2 mi SW 15.0 mph - N/A   Partly Cloudy
2:00 PM 44.6 °F 37.4 °F 35.6 °F 71% 29.30 in 6.2 mi SW 16.1 mph 29.9 mph N/A   Mostly Cloudy
2:30 PM 44.6 °F 37.2 °F 35.6 °F 71% 29.30 in 6.2 mi WSW 17.3 mph 31.1 mph N/A   Mostly Cloudy
3:00 PM 42.8 °F 37.0 °F 35.6 °F 76% 29.30 in 6.2 mi WSW 10.4 mph - N/A Rain Light Rain Showers
3:30 PM 41.0 °F 33.1 °F 37.4 °F 87% 29.30 in 6.2 mi West 15.0 mph - N/A   Mostly Cloudy
4:00 PM 41.0 °F 34.3 °F 35.6 °F 81% 29.30 in 6.2 mi SW 11.5 mph - N/A   Mostly Cloudy
4:30 PM 41.0 °F 34.3 °F 35.6 °F 81% 29.30 in 6.2 mi SW 11.5 mph - N/A   Mostly Cloudy
5:00 PM 39.2 °F 30.2 °F 35.6 °F 87% 29.30 in 6.2 mi SW 17.3 mph - N/A   Mostly Cloudy
5:30 PM 41.0 °F 34.3 °F 35.6 °F 81% 29.27 in 6.2 mi SW 11.5 mph - N/A   Scattered Clouds
6:00 PM 39 °F - 35 °F 80% 29.31 in 12 mi SSW 8.9 mph - - Rain Light Rain Showers
6:00 PM 39.2 °F 33.0 °F 35.6 °F 87% 29.27 in 6.2 mi SSW 9.2 mph - N/A   Scattered Clouds
6:30 PM 39.2 °F 33.0 °F 35.6 °F 87% 29.27 in 6.2 mi SSW 9.2 mph - N/A   Partly Cloudy
7:00 PM 41.0 °F 34.7 °F 35.6 °F 81% 29.27 in 6.2 mi SSW 10.4 mph - N/A   Partly Cloudy
7:30 PM 41.0 °F 33.9 °F 35.6 °F 81% 29.27 in 6.2 mi SW 12.7 mph - N/A   Partly Cloudy
8:00 PM 39.2 °F 32.0 °F 33.8 °F 81% 29.27 in 6.2 mi SSW 11.5 mph - N/A   Partly Cloudy
8:30 PM 41.0 °F 33.9 °F 35.6 °F 81% 29.27 in 6.2 mi SSW 12.7 mph - N/A   Partly Cloudy
9:00 PM 41.0 °F 34.3 °F 35.6 °F 81% 29.24 in 6.2 mi SSW 11.5 mph - N/A   Partly Cloudy
9:30 PM 42.8 °F 35.1 °F 35.6 °F 76% 29.24 in 6.2 mi SSW 16.1 mph - N/A   Partly Cloudy
10:00 PM 42.8 °F 35.1 °F 35.6 °F 76% 29.24 in 6.2 mi SSW 16.1 mph - N/A   Partly Cloudy
10:30 PM 42.8 °F 34.5 °F 35.6 °F 76% 29.24 in 6.2 mi SSW 18.4 mph - N/A   Partly Cloudy
11:00 PM 44.6 °F 37.2 °F 37.4 °F 76% 29.21 in 6.2 mi SSW 17.3 mph - N/A   Partly Cloudy
11:30 PM 42.8 °F 35.4 °F 39.2 °F 87% 29.21 in 6.2 mi SSW 15.0 mph - N/A   Scattered Clouds